Location: *
(48.8667°N, 2.3331°E)
Time: 08:33:32
(UTC+00:00)

Cosmos 1953 - Pass Details

Date: 09 April 2020
Orbit: 539 x 557 km, 82.5° (Epoch: 01 June)

Event Time Altitude Azimuth Distance (km) Brightness Sun altitude
Rises 19:31:53 0° 211° (SSW) 2,692 5.9 -9.8°
Reaches altitude 10° 19:34:11 10° 222° (SW) 1,807 5.2 -10.2°
Maximum altitude 19:37:48 33° 287° (WNW) 937 4.3 -10.7°
Drops below altitude 10° 19:41:28 10° 352° (N) 1,831 5.5 -11.2°
Sets 19:43:49 0° 3° (N) 2,733 6.2 -11.6°
